User: anonymous
Location: Caltech
(34.1382°N, 118.1253°W)
Time: 10:53:23
(UTC-07:00)
Language:

CZ-4B DEB - Orbit

View from above orbital plane
View from above orbital plane
View from above satellite
View from above satellite

Ground track
Ground track

The orbit data is extracted from the following two-line orbital elements,

1 27433U 02024D   14272.58713758  .00000441  00000-0  26655-3 0  9421
2 27433 098.8387 236.6901 0014283 338.0612 150.7704 14.11624204637243
Epoch (UTC): 29 September 2014 14:05:28
Eccentricity: 0.0014283
inclination: 98.8387°
perigee height: 843 km
apogee height: 864 km
right ascension of ascending node: 236.6901°
argument of perigee: 338.0612°
revolutions per day: 14.11624204
mean anomaly at epoch: 150.7704°
orbit number at epoch: 63724

The dashed part of the orbit path shows where the satellite is in the earth's shadow,  

DLR